Regional Weather Roundup
Issued by NWS Sioux Falls, SD

Home | Current Version | Previous Version | Graphics & Text | Print | Product List | Glossary On
Versions: 1 2 3 4 5 6 7 8 9 10 11 12 13 14 15 16 17 18 19 20 21 22 23 24 25 26 27 28 29 30 31 32 33 34 35 36 37 38 39 40 41 42 43 44 45 46 47 48 49 50
000
ASUS43 KFSD 091002
RWRFSD

WEATHER ROUNDUP FOR SE SOUTH DAKOTA/SW MINNESOTA/NW IOWA
NATIONAL WEATHER SERVICE SIOUX FALLS SD
400 AM CST FRI DEC 09 2016

NOTE: "FAIR" INDICATES FEW OR NO CLOUDS BELOW 12,000 FEET WITH NO
SIGNIFICANT WEATHER AND OR OBSTRUCTIONS TO VISIBILITY.


SDZ038>040-050-052>070-091100-
SOUTHEAST SOUTH DAKOTA

CITY           SKY/WX    TMP DP  RH WIND       PRES   REMARKS
CHAMBERLAIN    LGT SNOW   5   2  88 CALM      30.56F
HURON          CLOUDY    -5  -8  87 CALM      30.60F
MADISON        FAIR      -2  -4  92 NW5       30.54F WCI -12
MITCHELL       CLEAR     -2  -5  87 W3        30.62F
SIOUX FALLS    CLEAR      0  -3  87 W5        30.57F WCI -10
WINNER         FAIR       1  -3  83 E5        30.51F WCI  -9
YANKTON        CLEAR      0  -6  78 NW3       30.60F
$$

MNZ071-072-080-081-089-090-097-098-091100-
SOUTHWEST MINNESOTA

CITY           SKY/WX    TMP DP  RH WIND       PRES   REMARKS
FAIRMONT       FLURRIES   8   4  83 NW13      30.58R WCI  -8
JACKSON        CLEAR      3   1  92 NW3       30.55F
LUVERNE        CLEAR      1  -4  78 NW6       30.57F WCI -10
MARSHALL       CLEAR      1  -4  79 NW3       30.58F
MONTEVIDEO     CLEAR      1  -2  85 N5        30.61S WCI  -8
PIPESTONE      CLEAR      1  -2  85 NW5       30.53F WCI  -8
REDWOOD FALLS  CLEAR      3  -2  79 NW8       30.59S WCI -10
TRACY          CLEAR      4   0  83 NW5       30.57S WCI  -5
WINDOM         CLEAR      3   0  85 CALM      30.55F
WORTHINGTON    CLEAR      1  -2  87 W8        30.55F WCI -13
$$

IAZ001>003-012>014-020>022-031-032-NEZ013-014-SDZ071-091100-
NORTHWEST IOWA

CITY           SKY/WX    TMP DP  RH WIND       PRES   REMARKS
CHEROKEE       CLEAR      5   2  90 NW3       30.60F
DENISON        CLEAR      7   3  85 NW6       30.59S WCI  -3
ESTHERVILLE    CLEAR      3   1  91 NW6       30.56F WCI  -8
LE MARS        CLEAR      3   0  85 CALM      30.62F
ORANGE CITY    CLEAR      1   0  92 CALM      30.57F
SHELDON        CLEAR      3   1  92 NW7       30.56F WCI  -9
SIOUX CITY     CLEAR      6   1  80 NW6       30.63F WCI  -4
SPENCER        CLEAR      4   0  83 W14       30.58S WCI -14
STORM LAKE     CLEAR      3   1  92 W10       30.57S WCI -12
$$

ABBREVIATIONS USED IN REMARKS
   TC - TEMPERATURE IN CELSIUS
  WCI - WIND CHILL INDEX
   HX - HEAT INDEX
  VSB - VISIBILITY





USA.gov is the U.S. government's official web portal to all federal, state and local government web resources and services.